Flag for India Weather past 2 weeks in Sawai Madhopur, Rajasthan, India

Now
109 °F

Haze.


Feels Like: 102 °F
Forecast: 91 / 112 °F
Wind: 18 mph from West

Location: Jaipur / Sanganer

Current Time: May 23, 2015 at 2:58:31 PM

Latest Report: May 23, 2015 at 2:00 PM


Visibility: 2 mi

Pressure: 29.56 "Hg

Humidity: 7%

Dew point: 32 °F

Location of Sawai MadhopurLocation

Historic Weather in Sawai Madhopur — Graph

°F

Sawai Madhopur temperature yesterday

Maximum temperature yesterday: 109 °F (at 3:00 PM)
Minimum temperature yesterday: 84 °F (at 3:00 AM)
Average temperature yesterday: 95 °F

Past Weeks' High & Low Weather Summary

 TemperatureHumidityPressure
High111 °F (May 18, 3:00 PM)62% (May 11, 10:00 PM)29.89 "Hg (May 11, 10:00 PM)
Low77 °F (May 15, 5:00 AM)5% (May 9, 2:00 PM)29.56 "Hg (May 22, 6:00 PM)
Average92 °F28%29.72 "Hg
* Reported May 8 1:00 PM — May 23 1:00 PM, Sawai Madhopur, Weather by CustomWeather, © 2015

Note: Actual official high and low records may vary slightly from our data, if they occured in-between our weather recording intervals... More about our weather records

Advertising

Sawai Madhopur weather history for previous 24 hours

 ConditionsComfort  
Time TempWeatherWind HumidityBarometerVisibility
1:00 PM
Sat, May 23
108 °FHaze.14 mph12%29.59 "Hg2 mi
12:00 PM106 °FHaze.14 mph15%29.62 "Hg2 mi
11:00 AM104 °FHaze.16 mph19%29.62 "Hg2 mi
10:00 AM100 °FHaze.14 mph27%29.65 "Hg2 mi
9:00 AM97 °FHaze.14 mph32%29.65 "Hg2 mi
8:00 AM93 °FHaze.9 mph32%29.62 "Hg2 mi
7:00 AM88 °FHaze.6 mph29%29.62 "Hg2 mi
6:00 AM88 °FHaze.9 mph27%29.59 "Hg2 mi
5:00 AM90 °FHaze.7 mph24%29.59 "Hg2 mi
4:30 AM88 °FHaze.5 mph27%29.59 "Hg2 mi
1:00 AM93 °FHaze.6 mph20%29.62 "Hg2 mi
12:00 AM97 °FHaze.13 mph17%29.65 "Hg2 mi
11:00 PM
Fri, May 22
97 °FHaze.10 mph17%29.65 "Hg2 mi
10:00 PM97 °FHaze.9 mph16%29.62 "Hg2 mi
9:00 PM97 °FHaze.5 mph16%29.59 "Hg2 mi
8:00 PM100 °FHaze.6 mph13%29.59 "Hg2 mi
7:00 PM104 °FHaze.10 mph11%29.56 "Hg2 mi
6:00 PM108 °FHaze.15 mph10%29.56 "Hg2 mi
3:00 PM109 °FScattered clouds.16 mph8%29.59 "Hg2 mi
Weather by CustomWeather, © 2015

See weather overviewHow to use our weather pages